Weather in Stanovoe

Russia / Oryol Oblast     53°06′30″N   36°17′28″E
temp.,
°C
wind,
m/s
gust,
m/s
humid.,
%
clouds,
%
prec.,
mm/h
press.,
hPa
HPBL,
m
26 july, mon
mon2600:00+18s1157100 0.0 102311
03:00+16sw126136 0.0 102313
06:00+18s225875 0.0 102334
09:00+22s225029 0.0 1023428
12:00+23wsw225295 0.0 1024457
15:00+26sw13412 0.0 10221842
18:00+25wsw33511 0.0 1022875
21:00+21wnw1159100 0.0 102211
27 july, tue
tue2700:00+18ese117464 0.0 102311
03:00+17sse11773 0.1 102311
06:00+18ssw117697 0.0 102311
09:00+23wnw115816 0.0 1023372
12:00+27wsw224346 0.0 10221531
15:00+28w324049 0.0 10212394
18:00+27w224436 0.0 10202055
21:00+21e346797 0.0 102058
28 july, wed
wed2800:00+19se3571100 0.0 101974
03:00+18sse33695 0.0 101946
06:00+18sse376674 0.0 1017147
09:00+24s5849100 0.0 1016417
12:00+24ssw4755100 0.0 1015450
15:00+21s3873100 0.3 1014368
18:00+23ssw6106550 0.1 10121116
21:00+19ssw41095100 1.9 1011323
29 july, thu
thu2900:00+17sw4109713 0.0 1011214
03:00+17wsw37950 0.0 1011129
06:00+18wsw36932 0.0 1011132
09:00+21w488230 0.4 1011362
12:00+26w6753100 0.0 10111440
15:00+27w7846100 0.0 10102210
18:00+26w585319 0.0 10101283
21:00+21w38698 0.0 1010131
30 july, fri
fri3000:00+19wnw22740 0.0 101116
03:00+18wsw22775 0.0 101118
06:00+18sw22765 0.0 101228
09:00+25ssw23555 0.0 1012393
12:00+29sw44435 0.0 10111753
15:00+29sw554750 0.0 10101544
18:00+26s23585 0.1 100973
21:00+24ssw337110 0.5 101054